OneWeb SL0024

operational
NORAD ID: 45137 Int'l Des: 2020-008 Owner: ONEWEB Country: UK Constellation: oneweb
LEOCIRCULARPOLARONEWEB_TYPE

Über OneWeb SL0024

Beschreibung wird geladen...

Live-Position

3D-Globus wird geladen...

Nächste Überflüge

Höhenverlauf

Altitude vs Time

uPlot chart will show altitude changes over time

Zweizeiliger Elementsatz

1 45137U 20008G 25303.13211631 .00000160 00000-0 42245-3 0 9998
2 45137 87.8797 82.0952 0001626 97.5344 262.5968 13.10375350278116
Epoch: 30. Okt. 2025 • Age: 19 hours

Aktueller Status

Höhe 1234.0 km
Geschwindigkeit 7.24 km/s
Subsatellitenpunkt 80.94°N, 120.86°W
Startdatum 6. Feb. 2020
Alter 5.7 years
Typ internet

Technische Details

Klassifizierung Payload
Masse 148.00 kg
Trockenmasse 140.00 kg
Gesamtmasse 148.00 kg
Länge 1.30 m
Durchmesser 1.00 m
Spannweite 5.00 m
Form Trapezoid+2 pan
Hersteller ONEWUS
Bus-Typ ARROW
Phasenstatus In Orbit
Besitzer/Staat ONEWEB/UK

Große Konstellationen

Loading constellations...